Proserpine Hamilton Isla, Australia

5:04 PM AEST on December 10, 2016 (GMT +1000)
Proserpine Hamilton Isla

Weather History for 94368 - January, 2013

Change the Weather History Date:

Friday, January 18, 2013

  Actual Average Record
Temperature  
Mean Temperature 82 °F -  
Max Temperature 87 °F - - ()
Min Temperature 77 °F - - ()
Cooling Degree Days 17    
Growing Degree Days 32 (Base 50)    
Moisture  
Dew Point 73 °F    
Average Humidity 75    
Maximum Humidity 94    
Minimum Humidity 52    
Precipitation  
Precipitation 0.00 in - - ()
Sea Level Pressure  
Sea Level Pressure 29.79 in    
Wind  
Wind Speed 7 mph ()    
Max Wind Speed 16 mph    
Max Gust Speed -    
T = Trace of Precipitation, MM = Missing Value Source: Averaged Metar Reports

Daily Weather History Graph

Daily Weather History Graph

Search for Another Location

Airport or City:

Trip Planner

Search our weather history database for the weather conditions in past years. The results will help you decide how hot, cold, wet, or windy it might be!

Date:

Astronomy

Jan. 18, 2013 Rise Set
Actual Time 5:38 AM AEST 6:50 PM AEST
Civil Twilight 5:14 AM AEST 7:14 PM AEST
Nautical Twilight 4:46 AM AEST 7:42 PM AEST
Astronomical Twilight 4:16 AM AEST 8:12 PM AEST
Moon 11:29 AM AEST (1/18) 11:17 PM AEST (1/18)
Length of Visible Light 13h 59m
Length of Day
13h 11m
Waxing Crescent, 41% of the Moon is Illuminated
Jan 18
Waxing Crescent
Jan 19
First Quarter
Jan 27
Full
Feb 3
Last Quarter
Feb 10
New

Hourly Weather History & Observations

Time (AEST) Temp. Heat Index Dew Point Humidity Pressure Visibility Wind Dir Wind Speed Gust Speed Precip Events Conditions
12:00 AM 79 °F - 75 °F 83% 29.82 in - ESE 6.9 mph - -  
12:00 AM 78.8 °F - 75.2 °F 89% 29.83 in - ESE 6.9 mph - N/A   Unknown
12:30 AM 78.8 °F - 75.2 °F 89% 29.80 in - ESE 6.9 mph - N/A   Unknown
1:00 AM 78.8 °F - 75.2 °F 89% 29.80 in - East 5.8 mph - N/A   Unknown
2:00 AM 78.8 °F - 73.4 °F 83% 29.77 in - Calm Calm - N/A   Unknown
2:30 AM 78.8 °F - 75.2 °F 89% 29.77 in - NE 1.2 mph - N/A   Unknown
3:00 AM 78 °F - 75 °F 89% 29.77 in - NW 3.5 mph - -  
3:00 AM 77.0 °F - 75.2 °F 94% 29.77 in - NW 3.5 mph - N/A   Unknown
3:30 AM 77.0 °F - 75.2 °F 94% 29.77 in - Calm Calm - N/A   Unknown
4:00 AM 77.0 °F - 75.2 °F 94% 29.77 in - Calm Calm - N/A   Unknown
5:00 AM 78.8 °F - 75.2 °F 89% 29.77 in - North 3.5 mph - N/A   Unknown
5:30 AM 78.8 °F - 75.2 °F 89% 29.80 in - NE 3.5 mph - N/A   Unknown
6:00 AM 78 °F - 76 °F 90% 29.80 in - ENE 4.6 mph - -  
6:00 AM 77.0 °F - 75.2 °F 94% 29.80 in - ENE 4.6 mph - N/A   Unknown
6:30 AM 78.8 °F - 75.2 °F 89% 29.80 in - NE 3.5 mph - N/A   Unknown
7:00 AM 78.8 °F - 75.2 °F 89% 29.80 in - NE 2.3 mph - N/A   Unknown
7:30 AM 82.4 °F 89.5 °F 75.2 °F 79% 29.80 in - ENE 10.4 mph - N/A   Unknown
8:00 AM 82.4 °F 89.5 °F 75.2 °F 79% 29.80 in - East 13.8 mph - N/A   Unknown
8:30 AM 82.4 °F 88.2 °F 73.4 °F 74% 29.83 in - East 11.5 mph - N/A   Unknown
9:00 AM 84 °F - 75 °F 68% 29.83 in - East 11.5 mph - -  
9:00 AM 84.2 °F 92.3 °F 75.2 °F 74% 29.83 in - East 11.5 mph - N/A   Unknown
9:30 AM 84.2 °F 90.9 °F 73.4 °F 70% 29.83 in - NE 9.2 mph - N/A   Unknown
10:00 AM 86.0 °F 93.4 °F 73.4 °F 66% 29.83 in - NE 9.2 mph - N/A   Unknown
10:30 AM 84.2 °F 89.6 °F 71.6 °F 66% 29.83 in - ENE 11.5 mph - N/A   Unknown
11:00 AM 86.0 °F 93.4 °F 73.4 °F 66% 29.80 in - NE 11.5 mph - N/A   Unknown
12:00 PM 87 °F - 74 °F 57% 29.80 in - NE 11.5 mph - -  
12:00 PM 87.8 °F 95.6 °F 73.4 °F 62% 29.80 in - NE 11.5 mph - N/A   Unknown
12:30 PM 87.8 °F 95.6 °F 73.4 °F 62% 29.80 in - NE 11.5 mph - N/A   Unknown
1:00 PM 86.0 °F 90.4 °F 69.8 °F 58% 29.77 in - ENE 13.8 mph - N/A   Unknown
1:30 PM 86.0 °F 91.8 °F 71.6 °F 62% 29.77 in - East 15.0 mph - N/A   Unknown
2:00 PM 86.0 °F 90.4 °F 69.8 °F 58% 29.77 in - East 15.0 mph - N/A   Unknown
2:30 PM 87.8 °F 93.8 °F 71.6 °F 58% 29.77 in - ENE 12.7 mph - N/A   Unknown
3:00 PM 85 °F - 70 °F 52% 29.75 in - NE 13.8 mph - -  
3:00 PM 86.0 °F 90.4 °F 69.8 °F 58% 29.74 in - NE 13.8 mph - N/A   Unknown
3:30 PM 86.0 °F 91.8 °F 71.6 °F 62% 29.74 in - NE 13.8 mph - N/A   Unknown
4:00 PM 84.2 °F 88.4 °F 69.8 °F 62% 29.74 in - NE 16.1 mph - N/A   Unknown
4:30 PM 84.2 °F 89.6 °F 71.6 °F 66% 29.74 in - NE 16.1 mph - N/A   Unknown
5:00 PM 84.2 °F 89.6 °F 71.6 °F 66% 29.74 in - NE 15.0 mph - N/A   Unknown
5:30 PM 84.2 °F 89.6 °F 71.6 °F 66% 29.77 in - NE 11.5 mph - N/A   Unknown
6:00 PM 83 °F - 72 °F 62% 29.77 in - NNE 10.4 mph - -  
6:00 PM 82.4 °F 87.2 °F 71.6 °F 70% 29.77 in - NNE 10.4 mph - N/A   Unknown
6:30 PM 82.4 °F 87.2 °F 71.6 °F 70% 29.77 in - NE 10.4 mph - N/A   Unknown
7:00 PM 80.6 °F 85.4 °F 73.4 °F 79% 29.77 in - NNE 10.4 mph - N/A   Unknown
7:30 PM 80.6 °F 85.4 °F 73.4 °F 79% 29.80 in - NE 9.2 mph - N/A   Unknown
8:00 PM 80.6 °F 85.4 °F 73.4 °F 79% 29.80 in - NNE 9.2 mph - N/A   Unknown
8:30 PM 80.6 °F 85.4 °F 73.4 °F 79% 29.83 in - North 6.9 mph - N/A   Unknown
9:00 PM 80 °F - 72 °F 71% 29.83 in - North 6.9 mph - -  
9:00 PM 80.6 °F 84.6 °F 71.6 °F 74% 29.83 in - North 6.9 mph - N/A   Unknown
9:30 PM 80.6 °F 84.6 °F 71.6 °F 74% 29.83 in - North 6.9 mph - N/A   Unknown
10:00 PM 80.6 °F 84.6 °F 71.6 °F 74% 29.83 in - North 6.9 mph - N/A   Unknown
10:30 PM 78.8 °F - 71.6 °F 78% 29.83 in - North 6.9 mph - N/A   Unknown
11:00 PM 78.8 °F - 73.4 °F 83% 29.83 in - NE 4.6 mph - N/A   Unknown
11:30 PM 78.8 °F - 73.4 °F 83% 29.83 in - North 5.8 mph - N/A   Unknown